Flag for U.S.A. Weather past 2 weeks in Wichita, Kansas, U.S.A.

Now
73 °F

Passing clouds.


Feels Like: 71 °F
Forecast: 74 / 97 °F
Wind: 13 mph from South

Location: Wichita Mid-Continent Airport

Current Time: Jul 25, 2014 at 6:39:20 AM

Latest Report: Jul 25, 2014 at 5:53 AM


Visibility: 10 mi

Pressure: 29.86 "Hg

Humidity: 88%

Dew point: 69 °F

Location of WichitaLocation

Historic Weather in Wichita — Graph

°F

Wichita temperature yesterday

Maximum temperature yesterday: 90 °F (at 4:53 PM)
Minimum temperature yesterday: 70 °F (at 4:53 AM)
Average temperature yesterday: 80 °F

Past Weeks' High & Low Weather Summary

 TemperatureHumidityPressure
High95 °F (Jul 21, 3:53 PM)100% (Jul 10, 5:53 AM)30.18 "Hg (Jul 10, 5:53 AM)
Low56 °F (Jul 15, 5:53 AM)34% (Jul 15, 5:53 PM)29.82 "Hg (Jul 20, 5:53 PM)
Average75 °F70%30.00 "Hg
* Reported Jul 10 4:53 AM — Jul 25 4:53 AM, Wichita, Weather by CustomWeather, © 2014

Note: Actual official high and low records may vary slightly from our data, if they occured in-between our weather recording intervals... More about our weather records

Advertising

Wichita weather history for previous 24 hours

 ConditionsComfort  
Time TempWeatherWind HumidityBarometerVisibility
4:53 AM
Jul 25
75 °FPassing clouds.15 mph82%29.86 "Hg10 mi
3:53 AM75 °FPassing clouds.12 mph85%29.88 "Hg10 mi
2:53 AM77 °FPassing clouds.9 mph79%29.88 "Hg10 mi
1:53 AM78 °FPassing clouds.14 mph79%29.90 "Hg10 mi
12:53 AM78 °FPassing clouds.13 mph79%29.90 "Hg10 mi
11:53 PM
Jul 24
79 °FPassing clouds.14 mph74%29.90 "Hg10 mi
10:53 PM81 °FPassing clouds.14 mph69%29.92 "Hg10 mi
9:53 PM82 °FPassing clouds.12 mph67%29.91 "Hg10 mi
8:53 PM83 °FScattered clouds.13 mph65%29.90 "Hg10 mi
7:53 PM86 °FScattered clouds.13 mph59%29.89 "Hg10 mi
6:53 PM88 °FPassing clouds.20 mph54%29.89 "Hg10 mi
5:53 PM89 °FPassing clouds.16 mph52%29.92 "Hg10 mi
4:53 PM90 °FPassing clouds.16 mph50%29.94 "Hg10 mi
3:53 PM89 °FPassing clouds.16 mph52%29.96 "Hg10 mi
2:53 PM88 °FPassing clouds.14 mph52%29.98 "Hg10 mi
1:53 PM87 °FPassing clouds.13 mph51%30.01 "Hg10 mi
12:53 PM86 °FSunny.14 mph55%30.02 "Hg10 mi
11:53 AM83 °FSunny.12 mph61%30.04 "Hg10 mi
10:53 AM81 °FSunny.12 mph62%30.05 "Hg10 mi
9:53 AM78 °FSunny.12 mph66%30.06 "Hg10 mi
8:53 AM75 °FSunny.13 mph74%30.06 "Hg10 mi
7:53 AM73 °FSunny.12 mph76%30.06 "Hg10 mi
6:53 AM70 °FPassing clouds.7 mph81%30.05 "Hg10 mi
Weather by CustomWeather, © 2014

See weather overviewHow to use our weather pages